Volver al catálogo

THORAD AGENA D DEB

ActivoPO
NORAD 42514·DEBRIS·🇺🇸 United States

Lanzado Apr 8, 1970 desde Vandenberg Space Force Base

Loading…

Próximos Pases (próximas 24 horas)

TLE

EnvejeciendoSource: Space-Track

Época: Sep 11, 2026, 03:32 UTC

1 42514U 70025RU  26254.14772920  .00000142  00000-0  38507-3 0  9994
2 42514  99.3995   8.3405 0185137 105.9842 256.1759 13.23414726617974

Sigue THORAD AGENA D DEB en tiempo real con AllMySat

Download on the App Store